Location: New Plymouth
(39.0670°S, 174.0830°E)
Time: 00:03:33
(UTC+13:00)

Lacrosse 5 - Visible Passes

Search period start: 22 January 2021 00:00
Search period end: 01 February 2021 00:00
Orbit: 713 x 726 km, 57.0° (Epoch: 18 January)

Date Brightness Start Highest point End Pass type
(mag) Time Alt. Az. Time Alt. Az. Time Alt. Az.
22 Jan 2.7 01:25:18 48° S 01:25:18 48° S 01:29:26 10° SE visible
22 Jan 4.4 03:05:13 10° WSW 03:08:22 16° SSW 03:11:31 10° SSE visible
22 Jan 5.0 04:52:59 10° S 04:53:28 10° S 04:53:58 10° S visible
23 Jan 3.1 00:33:23 35° SE 00:33:23 35° SE 00:36:21 10° SE visible
23 Jan 4.0 02:12:32 17° WSW 02:14:43 22° SSW 02:18:45 10° SSE visible
23 Jan 4.9 03:58:32 10° SSW 03:59:32 10° S 04:00:32 10° S visible
23 Jan 4.7 05:42:04 10° SSW 05:44:43 14° SSE 05:47:21 10° SE visible
23 Jan 3.6 23:41:18 20° ESE 23:41:18 20° ESE 23:43:00 10° SE visible
24 Jan 3.3 01:20:25 32° SW 01:21:13 34° SW 01:25:54 10° SSE visible
24 Jan 4.7 03:03:31 10° SW 03:05:39 12° SSW 03:07:48 10° S visible
24 Jan 4.9 04:49:21 10° S 04:50:52 11° S 04:52:25 10° SSE visible
24 Jan 4.1 22:48:56 11° ESE 22:48:56 11° ESE 22:49:13 10° ESE visible
25 Jan 2.4 00:28:02 56° SW 00:28:02 56° SW 00:32:57 10° SE visible
25 Jan 4.5 02:08:42 10° WSW 02:11:52 16° SSW 02:15:03 10° SSE visible
25 Jan 5.1 03:56:31 10° S 03:56:57 10° S 03:57:25 10° S visible
25 Jan 4.6 05:38:21 10° SSW 05:41:57 18° SSE 05:45:32 10° ESE visible
25 Jan 1.8 23:35:03 76° ESE 23:35:03 76° ESE 23:39:51 10° SE visible
26 Jan 4.1 01:14:12 10° W 01:18:13 22° SSW 01:22:16 10° SSE visible
26 Jan 5.0 03:02:01 10° SSW 03:03:02 10° S 03:04:04 10° S visible
26 Jan 4.8 04:45:36 10° SSW 04:48:13 14° SSE 04:50:50 10° SE visible
26 Jan 2.1 22:39:57 32° N 22:41:39 43° NE 22:46:30 10° SE visible
27 Jan 3.4 00:20:05 10° WNW 00:24:43 34° SW 00:29:25 10° SSE visible
27 Jan 4.9 02:07:01 10° SW 02:09:09 12° SSW 02:11:19 10° S visible
27 Jan 5.0 03:52:53 10° S 03:54:23 11° S 03:55:53 10° SSE visible
27 Jan 4.3 05:34:41 10° SSW 05:39:02 26° SSE 05:43:23 10° E visible
27 Jan 2.9 21:44:51 10° N 21:48:46 23° ENE 21:52:43 10° ESE visible
27 Jan 2.5 23:26:22 10° WNW 23:31:23 57° SW 23:36:28 10° SE visible
28 Jan 4.7 01:12:12 10° WSW 01:15:22 16° SSW 01:18:34 10° SSE visible
28 Jan 5.2 03:00:03 10° S 03:00:28 10° S 03:00:52 10° S visible
28 Jan 4.7 04:41:53 10° SSW 04:45:27 18° SSE 04:49:01 10° ESE visible
28 Jan 1.7 22:33:07 10° NW 22:38:12 81° NE 22:43:22 10° SE visible
29 Jan 4.2 00:17:43 10° W 00:21:43 23° SSW 00:25:47 10° SSE visible
29 Jan 5.1 02:05:31 10° SSW 02:06:32 10° S 02:07:34 10° S visible
29 Jan 4.9 03:49:08 10° SSW 03:51:43 14° SSE 03:54:18 10° SE visible
29 Jan 3.4 05:31:05 10° SSW 05:35:59 41° SE 05:40:51 10° ENE visible
29 Jan 2.2 21:40:24 10° NNW 21:45:10 43° NE 21:50:01 10° SE visible
29 Jan 3.5 23:23:35 10° WNW 23:28:14 34° SW 23:32:56 10° SSE visible
30 Jan 5.0 01:10:30 10° SW 01:12:39 12° SSW 01:14:49 10° S visible
30 Jan 5.1 02:56:24 10° S 02:57:52 11° S 02:59:20 10° SSE visible
30 Jan 4.2 04:38:12 10° SSW 04:42:33 26° SSE 04:46:52 10° E visible
30 Jan 2.5 22:29:53 10° WNW 22:34:53 57° SW 22:39:58 10° SE visible
31 Jan 4.7 00:15:42 10° WSW 00:18:52 16° SSW 00:22:05 10° SSE visible
31 Jan 5.2 02:03:36 10° S 02:03:57 10° S 02:04:19 10° S visible
31 Jan 4.7 03:45:24 10° SSW 03:48:57 18° SSE 03:52:30 10° ESE visible
31 Jan 2.3 05:27:36 10° SW 05:32:47 70° SE 05:37:55 10° NE visible
31 Jan 1.8 21:36:38 10° NW 21:41:43 80° NE 21:46:52 10° SE visible
31 Jan 4.3 23:21:12 10° W 23:25:14 23° SSW 23:29:17 10° SSE visible
